Location: Unspecified
(0.0000°N, 0.0000°E)
Time: 17:20:58
(UTC+02:00)

Cosmos 1125 Rocket - Visible Passes

Search period start: 24 October 2014 00:00
Search period end: 02 November 2014 23:00
Orbit: 759 x 781 km, 74.0° (Epoch: 24 October)

Date Brightness Start Highest point End Pass type
(mag) Time Alt. Az. Time Alt. Az. Time Alt. Az.
24 Oct 5.0 06:45:15 10° N 06:50:08 40° ENE 06:55:04 10° SSE visible
25 Oct 6.1 06:10:00 10° NNE 06:13:46 20° ENE 06:17:34 10° SE visible
26 Oct 3.8 06:14:09 10° NNW 06:19:11 48° WSW 06:24:17 10° S visible
27 Oct 3.6 05:37:33 10° N 05:42:49 84° ENE 05:48:07 10° SSE visible
28 Oct 4.7 05:01:31 10° N 05:06:27 41° ENE 05:11:24 10° SSE visible
29 Oct 5.8 04:26:20 10° NNE 04:30:04 21° ENE 04:33:57 10° SE visible
29 Oct 4.7 06:07:46 10° NW 06:11:53 23° WSW 06:16:01 10° SSW visible
30 Oct 3.8 05:32:27 22° NW 05:35:29 46° WSW 05:40:33 10° S visible
31 Oct 3.4 04:58:00 57° N 04:59:07 87° ENE 05:04:26 10° SSE visible
01 Nov 4.7 04:23:23 40° E 04:23:23 40° E 04:27:44 10° SSE visible
01 Nov 5.4 06:03:46 10° W 06:04:35 11° WSW 06:05:45 10° WSW visible
02 Nov 6.1 03:48:39 16° ESE 03:48:39 16° ESE 03:50:18 10° SE visible
02 Nov 4.8 05:29:01 22° WSW 05:29:01 22° WSW 05:32:15 10° SSW visible
